Résultats de la compétition "Chpt MD de Franche-Comté" du 20-04-2008 organisée par le club 9006
     
  Télécharger le fichier CSV.  
     
     

 Circuit "Circuit A"

Licence Nom Prénom Temps CN
précédent
Score sur
la course
Différence
1518MULLERMarc0:34:5674697203-266
6523WYMEREddie0:38:4372426499-743
17898GAINEFrancis0:40:0154676288+821
1911MEYERKirian0:40:5561216149+28
10259HAURYAndre0:43:5754555725+270
10906COLINFranck0:45:0962155573-642
2796LEGALLAISJ-Luc0:45:3954775512+35
2372DIETSCHBernard0:46:5453375365+28
736POURREAlain0:49:3963125068-1244
13620VIELBrieuc0:50:0662495022-1227
1086ROBERTChristian0:53:2848564706-150
11513HAURYGilles0:53:3452774697-580
2894LEBIHANMarcel0:53:43N/A4684N/A
703ABISSEJacques0:54:2543964624+228
2376MAKOVICKALibor0:55:1642684553+285
9759BALLOTGabriel0:56:3247934451-342
366VESCOVOJ-Albert0:56:3348124449-363
312JOLYThierry0:56:4049724440-532
11875FRANCOISGerald0:56:5445024422-80
15340NEGRETTOJ-Pierre0:57:2128844387+1503
10998RENAUDBernard0:57:4540654357+292
8042FLECKFrederick0:58:0244364336-100
11440DUPOIRIEUXGilles1:01:2250954100-995
7713MARTINEZSylvain1:01:54N/A4065N/A
5631BETTINGERJ-Michel1:02:5444534000-453
2379BILQUEZEric1:03:0648673988-879
19024DALIBARDNicolas1:06:23N/A3790N/A
724LAURENTPhilippe1:06:3839593776-183
320BAGUEREYGilles1:07:0543783751-627
746TINCHANTJ-Marc1:07:1441113742-369
1897FRICKBernard1:07:3540043723-281
3905JOUFFROYMichel1:08:4138593663-196
4059FAIVREDaniel1:08:5544653651-814
2555RIAULTBernard1:10:4938993553-346
6534DEMAISONGuy1:13:1840683433-635
1906MERTZAndre1:13:3942383416-822
15542DORDOREmmanuel1:14:46N/A3365N/A
1910MEYERJ-Marc1:15:0551633351-1812
700LALLEMENDEric1:16:3332093287+78
632DUBROCAChristele1:16:5538263271-555
12763LASSEIGNELaurent1:17:5534763229-247
1916RUHLMANNJ-Pierre1:19:2635443168-376
2611AMIOTJacques1:21:0432413104-137
1710CERINIJ-Michel1:21:2842853089-1196
740RUAUDAlain1:22:3140673049-1018
1022ZUANBernard1:25:53N/A2930N/A
11071POINSENOTRoger1:27:2929612876-85
2282MORTELLIERBernard1:29:3637432808-935
4216GROSJEANThierry1:31:0630342762-272
5533THIEBAULTJ-Philippe1:34:3836102659-951
10901RAVENELPhilippe1:37:0042662594-1672
2271HOFERERAlbert1:38:5636102543-1067
15297BOEHMYves2:01:4825782066-512

  Indice de confiance du circuit (moyenne des différences entre CN et score sur la course des 3 à 10 premiers) : 136




 Circuit "Circuit B"

Licence Nom Prénom Temps CN
précédent
Score sur
la course
Différence
7301DUPOIRIEUXCloe0:34:5751135638+525
706BACHEREdith0:37:1252545297+43
702WYMERIsabelle0:40:2254074881-526
1223PICHOLSabrina0:43:52N/A4492N/A
745TINCHANTEstelle0:45:0146004377-223
738POURREValerie0:45:0844074366-41
19741ROBERTMatthieu0:46:13N/A4263N/A
9924BOICHUTIsabelle0:46:3848774225-652
3303MOUGELGabriel0:46:3951644224-940
15332MEYERPatricia0:52:4436383736+98
2378MAKOVICKAVeronique0:53:0544193712-707
14582LAZARDTiphaine0:53:1140523705-347
13637KORCHAKLena0:55:3038373550-287
2952ARMBRUSTERMarie0:56:4833373469+132
12361BALLOTAurelie0:57:0833303449+119
2375MAKOVICKAEdwige0:59:2833193313-6
7676MATHEVONCatherine1:01:11N/A3220N/A
12102BOUVERETMichelle1:03:2029553111+156
1087ROBERTMartine1:03:4135523094-458
13688FRANCOISAline1:03:5634813082-399
11507LEBIHANMartine1:05:2332103013-197
13833TRIMAILLEIsabelle1:07:5630892900-189
10903RAVENELManon1:08:5536712859-812
701ABISSEGisele1:15:5031022598-504
1909MEYERCorinne1:16:2634732578-895
3904JOUFFROYChristine1:17:1132222553-669
10496DUPOIRIEUXSophie1:23:0239332373-1560
364THIERRYGeraldine1:23:0229212373-548
18931MAUVILLYKarine1:29:1524002208-192
748TINCHANTPascale1:30:3126862177-509
739RUAUDAgnes1:36:2926982042-656
15538DOREIsabelle1:40:5017101954+244
10902RAVENELVeronique1:47:5031491827-1322
19984BASSETLydie2:20:28N/A1403N/A

  Indice de confiance du circuit (moyenne des différences entre CN et score sur la course des 3 à 10 premiers) : 149




 Circuit "Circuit C"

Licence Nom Prénom Temps CN
précédent
Score sur
la course
Différence
10561DUPOIRIEUXJules0:22:1756656491+826
7260SUTTEROlivier0:22:1951936482+1289
17170VUILLEMINGuillaume0:37:2743663862-504
17713KAUFFMANNBaptiste0:40:1725423591+1049
2263LEMBLEAndre0:44:2738893254-635
10904RAVENELFanny0:46:0045113145-1366
11748STRIBEAUMelanie0:48:3231562980-176
12523DOREAlexandre0:52:2528022760-42
12375ASMUSSENFlorence0:52:4134292746-683
9035RUHLMANNMarion1:02:5335812300-1281
310JOLYMauricette1:06:3329262174-752
326BERBETTGabriel1:09:0728992093-806
2547DESAINTJANClaude1:15:1926861921-765
7910MOUGELDanielle1:17:3725271864-663
725LAURENTTherese1:21:3225871774-813
10042DEMAISONAnais1:34:4023301528-802
19574PARISAlain1:45:41N/A1369N/A

  Indice de confiance du circuit (moyenne des différences entre CN et score sur la course des 3 à 10 premiers) : 694




 Circuit "Circuit D"

Licence Nom Prénom Temps CN
précédent
Score sur
la course
Différence
6779MAKOVICKAElsa0:27:2136023335-267
18542RUDKIEWICZMartin0:27:2816003321+1721
13477DIETSCHJoel0:33:4427122704-8
10077POURREMarion0:34:4633042623-681
19270PASQUAPierre0:35:00N/A2606N/A
17494ANDRIAMORAZAFIHANTASophie0:38:5827532341-412
10024RUHLMANNElodie0:44:2325292055-474
11508LEBIHANBarbara0:44:3826992043-656
13636KORCHAKTom0:46:1733331971-1362
13960GROSJEANApolline0:58:4116361554-82
2546DESAINTJANAlice1:00:0021641520-644
325BERBETTBeatrice1:21:31N/A1119N/A

  Indice de confiance du circuit (moyenne des différences entre CN et score sur la course des 3 à 10 premiers) : 536




 Circuit "Circuit E"

Licence Nom Prénom Temps CN
précédent
Score sur
la course
Différence
17171VUILLEMINPauline0:19:3929842736-248
14273POURREJeremi0:19:4424782724+246
17495ANDRIAMORAZAFIHANTANirina0:23:2321952299+104
16132GROSJEANCapucine0:42:1818921271-621

  Indice de confiance du circuit (moyenne des différences entre CN et score sur la course des 3 à 10 premiers) : 412




 Circuit "Circuit F"

Licence Nom Prénom Temps CN
précédent
Score sur
la course
Différence
15863BACHERManon0:18:06N/A2476N/A
16649WYMERKylian0:20:2420002197+197
13873JOUFFROYSophia0:24:2016401842+202
20152RUDKIEWICZLucie0:28:14N/A1587N/A
17074FRANCOISLysa0:30:1514681481+13
20153RUDKIEWICZMarie0:43:07N/A1039N/A
20151RUDKIEWICZJuliette0:44:07N/A1016N/A
20150RUDKIEWICZAnne0:49:19N/A909N/A
19025DALIBARDMonika0:50:46N/A883N/A

  Indice de confiance du circuit (moyenne des différences entre CN et score sur la course des 3 à 10 premiers) : 478






 Retour